EW1970 Weather Reports


Display with metric or nautical units.
time (UTC)temp
F
wind
direction
speed
MPH
gust
MPH
rain 1hr
in
rain 24hr
in
rain mn
in
humidity
%
barometer
mb
20260504050013 64 173 0.0 3.0 0.00 0.01 0.00 69 1017.8
20260504044508 64 274 0.0 5.0 0.00 0.01 0.01 67 1017.9
20260504043012 64 72 1.0 4.0 0.00 0.01 0.01 65 1018.0
20260504041512 64 198 0.0 3.0 0.00 0.01 0.01 66 1018.2
20260504040008 62 104 0.0 3.0 0.00 0.01 0.01 67 1018.3
20260504034510 60 105 0.0 0.0 0.00 0.01 0.01 70 1017.9
20260504033012 60 105 0.0 0.0 0.00 0.01 0.01 70 1017.9
20260504031514 61 105 0.0 0.0 0.00 0.01 0.01 69 1018.0
20260504030015 62 105 0.0 0.0 0.00 0.01 0.01 64 1018.0
20260504024510 63 105 0.0 0.0 0.00 0.01 0.01 64 1018.1
20260504023016 63 105 0.0 0.0 0.00 0.01 0.01 60 1017.7
20260504021517 64 105 0.0 0.0 0.00 0.01 0.01 62 1017.8
20260504020016 65 105 0.0 0.0 0.00 0.01 0.01 56 1017.7
20260504014515 66 105 0.0 0.0 0.00 0.01 0.01 55 1017.3
20260504013021 67 105 0.0 1.0 0.00 0.01 0.01 53 1017.3
20260504011520 68 103 0.0 2.0 0.00 0.01 0.01 52 1017.4
20260504010019 69 140 0.0 2.0 0.00 0.01 0.01 51 1017.3
20260504004521 70 104 0.0 2.0 0.00 0.01 0.01 50 1017.2
20260504003023 72 255 0.0 2.0 0.00 0.01 0.01 49 1017.3
20260504001517 72 138 1.0 8.0 0.00 0.01 0.01 47 1017.5
20260504000012 72 156 0.0 2.0 0.00 0.01 0.01 48 1017.6
20260503234504 73 132 0.0 4.0 0.00 0.01 0.01 51 1017.6
20260503233010 74 123 0.0 7.0 0.00 0.01 0.01 50 1017.8
20260503231515 73 182 0.0 2.0 0.00 0.01 0.01 50 1017.8
20260503230022 75 277 1.0 4.0 0.00 0.01 0.01 46 1017.6
20260503224503 77 59 1.0 10.0 0.00 0.01 0.01 41 1017.7
20260503223023 77 24 1.0 6.0 0.00 0.01 0.01 43 1018.2
20260503221514 78 223 1.0 6.0 0.00 0.01 0.01 44 1018.3
20260503220019 79 225 2.0 5.0 0.00 0.02 0.01 43 1018.5
20260503214524 76 280 1.0 6.0 0.00 0.02 0.01 44 1018.7
20260503213024 78 128 1.0 6.0 0.00 0.02 0.01 42 1019.2
20260503211509 77 113 1.0 6.0 0.00 0.02 0.01 41 1019.3
20260503210016 79 189 1.0 7.0 0.00 0.02 0.01 40 1019.7
20260503204522 78 180 1.0 10.0 0.00 0.03 0.01 41 1019.9
20260503203038 78 142 1.0 8.0 0.00 0.03 0.01 43 1020.1
20260503201509 79 281 2.0 8.0 0.00 0.03 0.01 36 1020.5
20260503200016 79 146 2.0 7.0 0.00 0.04 0.01 40 1020.7
20260503194521 79 292 0.0 5.0 0.00 0.04 0.01 40 1020.8
20260503193025 80 117 1.0 8.0 0.00 0.05 0.01 39 1021.2
20260503191523 79 254 2.0 10.0 0.00 0.05 0.01 43 1021.3
20260503190013 79 360 0.0 4.0 0.00 0.05 0.01 40 1021.5
20260503184526 79 136 1.0 7.0 0.00 0.06 0.01 42 1021.7
20260503183028 79 201 1.0 7.0 0.00 0.06 0.01 47 1021.9
20260503181528 78 75 2.0 8.0 0.00 0.06 0.01 43 1022.2
20260503180030 77 118 0.0 8.0 0.00 0.07 0.01 47 1022.5
20260503174517 78 121 2.0 7.0 0.00 0.08 0.01 49 1022.7
20260503173042 78 257 1.0 4.0 0.00 0.08 0.01 41 1022.7
20260503171534 76 272 1.0 4.0 0.00 0.09 0.01 46 1022.9
20260503081513 50 24 0.0 0.0 0.00 0.18 0.00 92 1021.7